Weather History for Albacete, Spain

Change the Weather History Date:

Monday, November 11, 2013

  Actual Average Record
Temperature  
Mean Temperature 57 °F -  
Max Temperature 68 °F - - ()
Min Temperature 46 °F - - ()
Degree Days  
Heating Degree Days 8    
Growing Degree Days 7 (Base 50)    
Moisture  
Dew Point 42 °F    
Average Humidity 61    
Maximum Humidity 76    
Minimum Humidity 38    
Precipitation  
Precipitation 0.00 in 0.05 in - ()
Sea Level Pressure  
Sea Level Pressure 30.24 in    
Wind  
Wind Speed 11 mph ()    
Max Wind Speed 18 mph    
Max Gust Speed -    
Visibility 19.0 miles    
Events      
T = Trace of Precipitation, MM = Missing Value Source: Averaged Metar Reports

Daily Weather History Graph

Daily Weather History Graph

Search for Another Location

Airport:

Trip Planner

Search our weather history database for the weather conditions in past years. The results will help you decide how hot, cold, wet, or windy it might be!

Date:

Astronomy

Nov. 11, 2013 Rise Set
Actual Time 7:45 AM CET 5:56 PM CET
Civil Twilight 7:17 AM CET 6:24 PM CET
Nautical Twilight 6:45 AM CET 6:56 PM CET
Astronomical Twilight 6:14 AM CET 7:28 PM CET
Moon 2:26 PM CET (11/11) 1:18 AM CET (11/11)
Length of Visible Light 11h 07m
Length of Day
10h 10m
Waxing Gibbous, 63% of the Moon is Illuminated
Nov 11
Waxing Gibbous
Nov 17
Full
Nov 25
Last Quarter
Dec 3
New
Dec 9
First Quarter

Hourly Weather History & Observations

Time (CET) Temp. Windchill Dew Point Humidity Pressure Visibility Wind Dir Wind Speed Gust Speed Precip Events Conditions
12:00 AM 48.2 °F - 41.0 °F 76% 30.30 in - West 10.4 mph - N/A   Clear
1:00 AM 51 °F - 39 °F 53% 30.32 in 19 mi WNW 13.8 mph - -   Clear
1:00 AM 50.0 °F - 41.0 °F 71% 30.30 in - WNW 13.8 mph - N/A   Clear
2:00 AM 48.2 °F - 39.2 °F 71% 30.30 in - WNW 10.4 mph - N/A   Clear
3:00 AM 50.0 °F - 41.0 °F 71% 30.30 in - WNW 12.7 mph - N/A   Clear
4:00 AM 50.0 °F - 41.0 °F 71% 30.27 in - WNW 17.3 mph - N/A   Clear
5:00 AM 48.2 °F - 41.0 °F 76% 30.27 in - WNW 11.5 mph - N/A   Clear
6:00 AM 48.2 °F - 41.0 °F 76% 30.27 in - WNW 13.8 mph - N/A   Clear
7:00 AM 48 °F - 38 °F 59% 30.29 in 19 mi West 8.1 mph - -   Scattered Clouds
7:00 AM 46.4 °F 42.4 °F 39.2 °F 76% 30.27 in - West 8.1 mph - N/A   Clear
8:00 AM 46.4 °F 41.9 °F 39.2 °F 76% 30.27 in - WSW 9.2 mph - N/A   Clear
9:00 AM 50.0 °F - 41.0 °F 71% 30.27 in - West 11.5 mph - N/A   Clear
10:00 AM 53.6 °F - 42.8 °F 67% 30.27 in - WNW 18.4 mph - N/A   Clear
11:00 AM 57.2 °F - 42.8 °F 59% 30.27 in - WNW 15.0 mph - N/A   Clear
12:00 PM 59.0 °F - 42.8 °F 55% 30.27 in - NW 13.8 mph - N/A   Clear
1:00 PM 62 °F - 43 °F 38% 30.19 in 19 mi WNW 15.0 mph - -   Scattered Clouds
1:00 PM 62.6 °F - 44.6 °F 52% 30.24 in - WNW 15.0 mph - N/A   Clear
2:00 PM 64.4 °F - 42.8 °F 45% 30.21 in - NW 13.8 mph - N/A   Clear
3:00 PM 66.2 °F - 44.6 °F 46% 30.18 in - NNW 13.8 mph - N/A   Clear
4:00 PM 68.0 °F - 44.6 °F 43% 30.18 in - NNW 15.0 mph - N/A   Clear
5:00 PM 68.0 °F - 44.6 °F 43% 30.18 in - North 10.4 mph - N/A   Clear
6:00 PM 64.4 °F - 44.6 °F 49% 30.18 in - NNW 11.5 mph - N/A   Clear
7:00 PM 62 °F - 44 °F 41% 30.14 in 19 mi NW 13.8 mph - -   Scattered Clouds
7:00 PM 60.8 °F - 44.6 °F 55% 30.18 in - NW 13.8 mph - N/A   Clear
8:00 PM 59.0 °F - 44.6 °F 59% 30.21 in - NW 8.1 mph - N/A   Clear
9:00 PM 55.4 °F - 44.6 °F 67% 30.21 in - NW 8.1 mph - N/A   Clear
10:00 PM 51.8 °F - 44.6 °F 76% 30.21 in - NW 5.8 mph - N/A   Clear
11:00 PM 50.0 °F - 42.8 °F 76% 30.21 in - NW 5.8 mph - N/A   Clear